Location: Riverton
(43.0250°N, 108.3790°W)
Time: 15:09:33
(UTC-06:00)

JAS-2 - Visible Passes

Search period start: 01 July 2015 00:00
Search period end: 11 July 2015 00:00
Orbit: 800 x 1322 km, 98.5° (Epoch: 30 June)

Date Brightness Start Highest point End Pass type
(mag) Time Alt. Az. Time Alt. Az. Time Alt. Az.
01 Jul 10.5 04:24:35 10° NNE 04:30:49 52° E 04:37:51 10° S visible
02 Jul 11.8 03:30:40 10° NE 03:35:23 21° E 03:40:45 10° SE visible
03 Jul 10.6 04:19:36 10° NNE 04:25:55 49° E 04:32:59 10° S visible
04 Jul 11.9 03:25:48 10° NE 03:30:27 20° E 03:35:42 10° SE visible
05 Jul 10.8 04:14:38 10° NNE 04:21:01 47° E 04:28:07 10° S visible
06 Jul 12.0 03:20:57 10° NE 03:25:30 19° E 03:30:40 10° SE visible
06 Jul 9.9 05:04:30 10° NNE 05:11:11 81° WNW 05:18:40 10° SSW visible
07 Jul 10.9 04:09:41 10° NNE 04:16:07 44° E 04:23:15 10° S visible
08 Jul 12.0 03:16:08 10° NE 03:20:34 18° E 03:25:37 10° SE visible
08 Jul 10.0 04:59:30 10° NNE 05:06:19 86° WNW 05:13:54 10° SSW visible
09 Jul 11.0 04:04:45 10° NNE 04:11:13 42° E 04:18:22 10° SSE visible
10 Jul 12.1 03:11:20 10° NE 03:15:37 17° E 03:20:31 10° SE visible
10 Jul 10.0 04:54:31 10° NNE 05:01:28 90° ESE 05:09:08 10° SSW visible
